ANZ020M NZNR-NZAA

Flight info

Callsign ANZ020M
Flight time 0h 56m
Altitude 19000
Route BOVSA H372 MOOSE Y601 DODKU
Aircraft AT76/M-SDFGR/LB1

Departure

Time 2026-04-15 04:02
Airport Hawke's Bay Airport (NZNR)

Arrival

Time 2026-04-15 04:58
Airport Auckland International Airport (NZAA)
Time Latitude Longitude Altitude Speed Heading
2026-04-15 03:53 -39.46612 176.87173 10 ft 0 kts 204°
2026-04-15 03:56 -39.46616 176.87169 8 ft 1 kts 223°
2026-04-15 03:56 -39.46612 176.87155 8 ft 3 kts 304°
2026-04-15 03:56 -39.46573 176.87129 9 ft 8 kts 355°
2026-04-15 03:57 -39.46509 176.87127 9 ft 10 kts 359°
2026-04-15 03:57 -39.46444 176.87120 10 ft 7 kts 333°
2026-04-15 03:57 -39.46434 176.87080 11 ft 3 kts 270°
2026-04-15 03:57 -39.46434 176.87056 11 ft 2 kts 270°
2026-04-15 03:58 -39.46435 176.87027 11 ft 4 kts 268°
2026-04-15 03:58 -39.46436 176.86981 11 ft 6 kts 269°
2026-04-15 03:58 -39.46436 176.86902 13 ft 13 kts 269°
2026-04-15 03:58 -39.46433 176.86795 14 ft 8 kts 300°
2026-04-15 03:59 -39.46370 176.86785 12 ft 12 kts
2026-04-15 03:59 -39.46277 176.86794 13 ft 13 kts
2026-04-15 03:59 -39.46211 176.86819 14 ft 5 kts 355°
2026-04-15 03:59 -39.46209 176.86801 14 ft 2 kts 237°
2026-04-15 04:00 -39.46235 176.86799 14 ft 2 kts 185°
2026-04-15 04:00 -39.46236 176.86799 14 ft 0 kts 185°
2026-04-15 04:01 -39.46237 176.86799 14 ft 1 kts 185°
2026-04-15 04:02 -39.46391 176.86782 12 ft 54 kts 186°
2026-04-15 04:02 -39.46947 176.86719 16 ft 105 kts 184°
2026-04-15 04:02 -39.47789 176.86643 301 ft 122 kts 188°
2026-04-15 04:02 -39.48632 176.86597 891 ft 121 kts 186°
2026-04-15 04:03 -39.49466 176.86909 1229 ft 139 kts 155°
2026-04-15 04:03 -39.50361 176.87638 1286 ft 164 kts 152°
2026-04-15 04:03 -39.51374 176.88505 1446 ft 181 kts 151°
2026-04-15 04:03 -39.52439 176.89404 1871 ft 183 kts 153°
2026-04-15 04:04 -39.53539 176.90232 2313 ft 182 kts 155°
2026-04-15 04:04 -39.54653 176.91019 2800 ft 183 kts 156°
2026-04-15 04:04 -39.55647 176.92060 3219 ft 193 kts 122°
2026-04-15 04:04 -39.55847 176.93773 3624 ft 199 kts 76°
2026-04-15 04:05 -39.55123 176.95249 4000 ft 195 kts 32°
2026-04-15 04:05 -39.53895 176.95843 4288 ft 190 kts 10°
2026-04-15 04:05 -39.52614 176.96341 4554 ft 195 kts
2026-04-15 04:05 -39.51316 176.96765 5008 ft 192 kts
2026-04-15 04:06 -39.50025 176.97147 5425 ft 190 kts
2026-04-15 04:06 -39.48726 176.97488 5801 ft 192 kts
2026-04-15 04:06 -39.47426 176.97925 6187 ft 193 kts
2026-04-15 04:06 -39.46114 176.98304 6531 ft 193 kts
2026-04-15 04:07 -39.44776 176.98526 6880 ft 193 kts 359°
2026-04-15 04:07 -39.43432 176.98666 7216 ft 195 kts 357°
2026-04-15 04:07 -39.42071 176.98799 7543 ft 197 kts 358°
2026-04-15 04:07 -39.40693 176.98936 7865 ft 199 kts 357°
2026-04-15 04:08 -39.39303 176.99068 8206 ft 201 kts 357°
2026-04-15 04:08 -39.37948 176.99012 8518 ft 192 kts 332°
2026-04-15 04:08 -39.36910 176.98034 8787 ft 182 kts 309°
2026-04-15 04:08 -39.35977 176.96901 9100 ft 185 kts 310°
2026-04-15 04:09 -39.34998 176.95806 9423 ft 188 kts 313°
2026-04-15 04:09 -39.33966 176.94786 9711 ft 191 kts 316°
2026-04-15 04:09 -39.32855 176.93826 10000 ft 193 kts 320°
2026-04-15 04:09 -39.31702 176.92918 10291 ft 195 kts 321°
2026-04-15 04:10 -39.30532 176.92020 10611 ft 196 kts 320°
2026-04-15 04:10 -39.29361 176.91112 10920 ft 196 kts 320°
2026-04-15 04:10 -39.28190 176.90196 11201 ft 198 kts 320°
2026-04-15 04:10 -39.27011 176.89277 11491 ft 198 kts 319°
2026-04-15 04:11 -39.25834 176.88363 11787 ft 198 kts 319°
2026-04-15 04:11 -39.24647 176.87431 12084 ft 200 kts 319°
2026-04-15 04:11 -39.23459 176.86500 12360 ft 201 kts 319°
2026-04-15 04:11 -39.22261 176.85569 12641 ft 202 kts 319°
2026-04-15 04:12 -39.21059 176.84630 12915 ft 202 kts 319°
2026-04-15 04:12 -39.19854 176.83690 13201 ft 203 kts 319°
2026-04-15 04:12 -39.18645 176.82748 13472 ft 203 kts 318°
2026-04-15 04:12 -39.17427 176.81800 13673 ft 205 kts 319°
2026-04-15 04:13 -39.16212 176.80853 13935 ft 204 kts 318°
2026-04-15 04:13 -39.14989 176.79904 14159 ft 205 kts 318°
2026-04-15 04:13 -39.13773 176.78954 14377 ft 206 kts 318°
2026-04-15 04:13 -39.12545 176.78002 14608 ft 206 kts 318°
2026-04-15 04:14 -39.11314 176.77042 14814 ft 207 kts 317°
2026-04-15 04:14 -39.10081 176.76083 15048 ft 207 kts 318°
2026-04-15 04:14 -39.08845 176.75123 15274 ft 208 kts 317°
2026-04-15 04:14 -39.07606 176.74161 15493 ft 208 kts 317°
2026-04-15 04:15 -39.06364 176.73197 15698 ft 209 kts 317°
2026-04-15 04:15 -39.05121 176.72234 15982 ft 206 kts 317°
2026-04-15 04:15 -39.03890 176.71287 16232 ft 206 kts 317°
2026-04-15 04:15 -39.02651 176.70325 16390 ft 209 kts 317°
2026-04-15 04:16 -39.01417 176.69367 16624 ft 207 kts 317°
2026-04-15 04:16 -39.00176 176.68409 16819 ft 209 kts 317°
2026-04-15 04:16 -38.98924 176.67432 17011 ft 211 kts 317°
2026-04-15 04:16 -38.97536 176.66664 17171 ft 223 kts 330°
2026-04-15 04:17 -38.96029 176.66099 17369 ft 225 kts 333°
2026-04-15 04:17 -38.94536 176.65566 17605 ft 225 kts 332°
2026-04-15 04:17 -38.93006 176.65007 17815 ft 226 kts 332°
2026-04-15 04:17 -38.91523 176.64423 17967 ft 225 kts 330°
2026-04-15 04:18 -38.90028 176.63809 18147 ft 226 kts 330°
2026-04-15 04:18 -38.88528 176.63190 18299 ft 227 kts 330°
2026-04-15 04:18 -38.87058 176.62517 18497 ft 221 kts 324°
2026-04-15 04:18 -38.85668 176.61675 18590 ft 222 kts 321°
2026-04-15 04:19 -38.84281 176.60761 18627 ft 227 kts 321°
2026-04-15 04:19 -38.82863 176.59822 18654 ft 231 kts 321°
2026-04-15 04:19 -38.81406 176.58880 18676 ft 237 kts 322°
2026-04-15 04:19 -38.79906 176.57945 18678 ft 242 kts 323°
2026-04-15 04:20 -38.78376 176.56997 18671 ft 245 kts 323°
2026-04-15 04:20 -38.76828 176.56036 18677 ft 248 kts 323°
2026-04-15 04:20 -38.75266 176.55072 18687 ft 250 kts 323°
2026-04-15 04:20 -38.73712 176.54112 18682 ft 252 kts 324°
2026-04-15 04:21 -38.72128 176.53132 18684 ft 253 kts 324°
2026-04-15 04:21 -38.70540 176.52148 18687 ft 254 kts 324°
2026-04-15 04:21 -38.68948 176.51165 18689 ft 254 kts 324°
2026-04-15 04:21 -38.67351 176.50179 18687 ft 255 kts 324°
2026-04-15 04:22 -38.65753 176.49192 18691 ft 255 kts 324°
2026-04-15 04:22 -38.64152 176.48204 18685 ft 255 kts 324°
2026-04-15 04:22 -38.62554 176.47218 18691 ft 255 kts 324°
2026-04-15 04:22 -38.60951 176.46231 18694 ft 255 kts 324°
2026-04-15 04:23 -38.59349 176.45245 18695 ft 255 kts 324°
2026-04-15 04:23 -38.57749 176.44258 18691 ft 255 kts 324°
2026-04-15 04:23 -38.56142 176.43269 18693 ft 255 kts 324°
2026-04-15 04:23 -38.54543 176.42286 18700 ft 256 kts 324°
2026-04-15 04:24 -38.52937 176.41300 18695 ft 255 kts 324°
2026-04-15 04:24 -38.51335 176.40315 18699 ft 255 kts 324°
2026-04-15 04:24 -38.49755 176.39347 18702 ft 255 kts 324°
2026-04-15 04:24 -38.48147 176.38359 18701 ft 256 kts 324°
2026-04-15 04:25 -38.46543 176.37374 18699 ft 256 kts 324°
2026-04-15 04:25 -38.44938 176.36391 18701 ft 255 kts 324°
2026-04-15 04:25 -38.43336 176.35410 18701 ft 255 kts 324°
2026-04-15 04:25 -38.41738 176.34430 18704 ft 255 kts 324°
2026-04-15 04:26 -38.40140 176.33451 18703 ft 255 kts 324°
2026-04-15 04:26 -38.38546 176.32476 18706 ft 254 kts 325°
2026-04-15 04:26 -38.36950 176.31498 18704 ft 254 kts 325°
2026-04-15 04:26 -38.35358 176.30526 18708 ft 254 kts 325°
2026-04-15 04:27 -38.33761 176.29550 18710 ft 254 kts 325°
2026-04-15 04:27 -38.32169 176.28577 18712 ft 254 kts 325°
2026-04-15 04:27 -38.30574 176.27602 18709 ft 254 kts 325°
2026-04-15 04:27 -38.28978 176.26628 18712 ft 254 kts 325°
2026-04-15 04:28 -38.27403 176.25666 18709 ft 254 kts 325°
2026-04-15 04:28 -38.25809 176.24693 18713 ft 254 kts 325°
2026-04-15 04:28 -38.24208 176.23723 18715 ft 254 kts 325°
2026-04-15 04:28 -38.22617 176.22754 18709 ft 254 kts 326°
2026-04-15 04:29 -38.21027 176.21786 18717 ft 253 kts 325°
2026-04-15 04:29 -38.19438 176.20819 18722 ft 253 kts 325°
2026-04-15 04:29 -38.17848 176.19853 18723 ft 253 kts 325°
2026-04-15 04:29 -38.16263 176.18889 18722 ft 253 kts 326°
2026-04-15 04:30 -38.14673 176.17924 18721 ft 253 kts 326°
2026-04-15 04:30 -38.13086 176.16957 18718 ft 253 kts 326°
2026-04-15 04:30 -38.11500 176.15996 18724 ft 252 kts 326°
2026-04-15 04:30 -38.09913 176.15033 18725 ft 253 kts 326°
2026-04-15 04:31 -38.08326 176.14070 18720 ft 252 kts 326°
2026-04-15 04:31 -38.06743 176.13110 18720 ft 252 kts 326°
2026-04-15 04:31 -38.05163 176.12152 18724 ft 251 kts 326°
2026-04-15 04:31 -38.03588 176.11198 18729 ft 251 kts 326°
2026-04-15 04:32 -38.02013 176.10244 18730 ft 250 kts 326°
2026-04-15 04:32 -38.00461 176.09305 18729 ft 250 kts 326°
2026-04-15 04:32 -37.98887 176.08357 18732 ft 250 kts 326°
2026-04-15 04:32 -37.97317 176.07406 18737 ft 250 kts 326°
2026-04-15 04:33 -37.95749 176.06460 18733 ft 250 kts 326°
2026-04-15 04:33 -37.94167 176.05504 18734 ft 250 kts 326°
2026-04-15 04:33 -37.92602 176.04561 18730 ft 250 kts 326°
2026-04-15 04:33 -37.91025 176.03608 18733 ft 250 kts 326°
2026-04-15 04:34 -37.89456 176.02664 18737 ft 250 kts 326°
2026-04-15 04:34 -37.87889 176.01718 18743 ft 250 kts 326°
2026-04-15 04:34 -37.86828 176.01080 18746 ft 250 kts 327°
2026-04-15 04:34 -37.85272 176.00142 18737 ft 251 kts 326°
2026-04-15 04:35 -37.83697 175.99194 18736 ft 250 kts 326°
2026-04-15 04:35 -37.82126 175.98249 18739 ft 250 kts 327°
2026-04-15 04:35 -37.80556 175.97303 18744 ft 250 kts 327°
2026-04-15 04:35 -37.78988 175.96361 18741 ft 249 kts 327°
2026-04-15 04:36 -37.77425 175.95422 18748 ft 249 kts 327°
2026-04-15 04:36 -37.75859 175.94482 18750 ft 249 kts 327°
2026-04-15 04:36 -37.74301 175.93546 18748 ft 248 kts 327°
2026-04-15 04:36 -37.72737 175.92609 18745 ft 248 kts 327°
2026-04-15 04:37 -37.71173 175.91671 18744 ft 248 kts 327°
2026-04-15 04:37 -37.69616 175.90738 18753 ft 248 kts 327°
2026-04-15 04:37 -37.68078 175.89818 18753 ft 248 kts 327°
2026-04-15 04:37 -37.66523 175.88887 18748 ft 247 kts 327°
2026-04-15 04:38 -37.64968 175.87956 18749 ft 247 kts 327°
2026-04-15 04:38 -37.63416 175.87027 18748 ft 246 kts 327°
2026-04-15 04:38 -37.61867 175.86101 18756 ft 246 kts 327°
2026-04-15 04:38 -37.60320 175.85178 18739 ft 246 kts 327°
2026-04-15 04:39 -37.58779 175.84258 18718 ft 244 kts 327°
2026-04-15 04:39 -37.57247 175.83342 18745 ft 243 kts 327°
2026-04-15 04:39 -37.55720 175.82432 18747 ft 242 kts 327°
2026-04-15 04:39 -37.54197 175.81521 18758 ft 242 kts 327°
2026-04-15 04:40 -37.52675 175.80613 18769 ft 242 kts 327°
2026-04-15 04:40 -37.51146 175.79702 18777 ft 244 kts 327°
2026-04-15 04:40 -37.49610 175.78785 18771 ft 245 kts 327°
2026-04-15 04:40 -37.48082 175.77875 18760 ft 247 kts 327°
2026-04-15 04:41 -37.46527 175.76946 18758 ft 247 kts 327°
2026-04-15 04:41 -37.44973 175.76019 18707 ft 248 kts 327°
2026-04-15 04:41 -37.43585 175.74749 18407 ft 249 kts 310°
2026-04-15 04:41 -37.42420 175.73094 18095 ft 256 kts 305°
2026-04-15 04:42 -37.41285 175.71324 17733 ft 264 kts 305°
2026-04-15 04:42 -37.40114 175.69511 17354 ft 267 kts 306°
2026-04-15 04:42 -37.38921 175.67763 16981 ft 261 kts 307°
2026-04-15 04:42 -37.37744 175.66058 16621 ft 256 kts 307°
2026-04-15 04:43 -37.36586 175.64385 16307 ft 251 kts 307°
2026-04-15 04:43 -37.35462 175.62750 16052 ft 245 kts 307°
2026-04-15 04:43 -37.34361 175.61141 15788 ft 240 kts 307°
2026-04-15 04:43 -37.33282 175.59559 15517 ft 237 kts 307°
2026-04-15 04:44 -37.32205 175.58018 15202 ft 237 kts 308°
2026-04-15 04:44 -37.31105 175.56473 14889 ft 237 kts 308°
2026-04-15 04:44 -37.30009 175.54912 14575 ft 237 kts 307°
2026-04-15 04:44 -37.28927 175.53355 14271 ft 236 kts 307°
2026-04-15 04:45 -37.27845 175.51798 13956 ft 236 kts 307°
2026-04-15 04:45 -37.26765 175.50242 13678 ft 236 kts 307°
2026-04-15 04:45 -37.25685 175.48690 13347 ft 236 kts 307°
2026-04-15 04:45 -37.24607 175.47133 13018 ft 235 kts 307°
2026-04-15 04:46 -37.23523 175.45589 12690 ft 235 kts 307°
2026-04-15 04:46 -37.21367 175.42497 12048 ft 235 kts 308°
2026-04-15 04:46 -37.20300 175.40967 11736 ft 235 kts 307°
2026-04-15 04:47 -37.19209 175.39408 11425 ft 235 kts 307°
2026-04-15 04:47 -37.18132 175.37864 11117 ft 235 kts 307°
2026-04-15 04:47 -37.17056 175.36324 10813 ft 235 kts 308°
2026-04-15 04:47 -37.15982 175.34786 10504 ft 235 kts 308°
2026-04-15 04:48 -37.14903 175.33242 10208 ft 235 kts 307°
2026-04-15 04:48 -37.13837 175.31724 9917 ft 235 kts 308°
2026-04-15 04:48 -37.12750 175.30167 9605 ft 235 kts 308°
2026-04-15 04:48 -37.11671 175.28630 9274 ft 235 kts 308°
2026-04-15 04:49 -37.10597 175.27095 8944 ft 234 kts 308°
2026-04-15 04:49 -37.09523 175.25567 8622 ft 233 kts 308°
2026-04-15 04:49 -37.08454 175.24040 8320 ft 233 kts 308°
2026-04-15 04:49 -37.07380 175.22512 7987 ft 233 kts 308°
2026-04-15 04:50 -37.06318 175.21005 7698 ft 234 kts 308°
2026-04-15 04:50 -37.05242 175.19473 7389 ft 234 kts 307°
2026-04-15 04:50 -37.04167 175.17933 7078 ft 235 kts 307°
2026-04-15 04:50 -37.03088 175.16400 6788 ft 235 kts 308°
2026-04-15 04:51 -37.02009 175.14869 6470 ft 234 kts 308°
2026-04-15 04:51 -37.00930 175.13338 6178 ft 234 kts 308°
2026-04-15 04:51 -36.99856 175.11811 5863 ft 232 kts 308°
2026-04-15 04:51 -36.98833 175.10377 5559 ft 208 kts 308°
2026-04-15 04:52 -36.97877 175.09050 5289 ft 206 kts 307°
2026-04-15 04:52 -36.96921 175.07710 5016 ft 206 kts 307°
2026-04-15 04:52 -36.95968 175.06359 4733 ft 207 kts 307°
2026-04-15 04:52 -36.95018 175.05007 4437 ft 206 kts 306°
2026-04-15 04:53 -36.94489 175.03461 4170 ft 189 kts 269°
2026-04-15 04:53 -36.94693 175.01942 3745 ft 175 kts 254°
2026-04-15 04:53 -36.95123 175.00545 3427 ft 170 kts 249°
2026-04-15 04:53 -36.95567 174.99172 3184 ft 165 kts 253°
2026-04-15 04:54 -36.95937 174.97827 3066 ft 162 kts 253°
2026-04-15 04:54 -36.96295 174.96494 2919 ft 165 kts 254°
2026-04-15 04:54 -36.96662 174.95043 2453 ft 177 kts 254°
2026-04-15 04:54 -36.97041 174.93657 2227 ft 159 kts 252°
2026-04-15 04:55 -36.97410 174.92402 2025 ft 154 kts 252°
2026-04-15 04:55 -36.97757 174.91127 1818 ft 155 kts 253°
2026-04-15 04:55 -36.98094 174.89864 1622 ft 149 kts 253°
2026-04-15 04:55 -36.98424 174.88680 1436 ft 139 kts 252°
2026-04-15 04:56 -36.98726 174.87590 1268 ft 124 kts 253°
2026-04-15 04:56 -36.98993 174.86652 1131 ft 108 kts 253°
2026-04-15 04:56 -36.99231 174.85779 964 ft 104 kts 253°
2026-04-15 04:56 -36.99453 174.84936 782 ft 99 kts 251°
2026-04-15 04:57 -36.99671 174.84128 670 ft 101 kts 250°
2026-04-15 04:57 -36.99924 174.83290 533 ft 104 kts 250°
2026-04-15 04:57 -37.00146 174.82447 380 ft 99 kts 251°
2026-04-15 04:57 -37.00373 174.81640 280 ft 97 kts 250°
2026-04-15 04:58 -37.00592 174.80845 116 ft 96 kts 251°
2026-04-15 04:58 -37.00811 174.80054 27 ft 92 kts 251°
2026-04-15 04:58 -37.00987 174.79417 22 ft 55 kts 251°
2026-04-15 04:58 -37.01063 174.79098 22 ft 31 kts 260°
2026-04-15 04:59 -37.01056 174.78876 22 ft 17 kts 279°
2026-04-15 04:59 -37.01043 174.78784 23 ft 7 kts 280°
2026-04-15 04:59 -37.01018 174.78742 22 ft 7 kts 339°
2026-04-15 04:59 -37.00970 174.78775 22 ft 12 kts 72°
2026-04-15 05:00 -37.00934 174.78911 24 ft 19 kts 72°
2026-04-15 05:00 -37.00893 174.79060 24 ft 12 kts 71°
2026-04-15 05:00 -37.00856 174.79190 22 ft 19 kts 70°
2026-04-15 05:00 -37.00816 174.79318 23 ft 11 kts 45°
2026-04-15 05:01 -37.00759 174.79319 22 ft 5 kts 340°
2026-04-15 05:01 -37.00732 174.79307 22 ft 4 kts 341°
2026-04-15 05:01 -37.00727 174.79305 22 ft 0 kts 341°
2026-04-15 05:02 -37.00719 174.79303 22 ft 2 kts 343°
2026-04-15 05:02 -37.00706 174.79293 24 ft 2 kts 320°
2026-04-15 05:02 -37.00699 174.79284 24 ft 4 kts 314°
2026-04-15 05:02 -37.00675 174.79280 22 ft 3 kts 48°
2026-04-15 05:03 -37.00674 174.79286 24 ft 0 kts 72°